Regional Weather Roundup
Issued by NWS Jackson, KY

Home | Current Version | Previous Version | Text Only | Print | Product List | Glossary On
Versions: 1 2 3 4 5 6 7 8 9 10 11 12 13 14 15 16 17 18 19 20 21 22 23 24 25 26 27 28 29 30 31 32 33 34 35 36 37 38 39 40 41 42 43 44 45 46 47 48 49 50
000
ASUS43 KJKL 170119
RWRJKL

EAST KENTUCKY HOURLY WEATHER ROUNDUP
NATIONAL WEATHER SERVICE JACKSON KY
900 PM EDT WED APR 16 2014

NOTE: "FAIR" INDICATES FEW OR NO CLOUDS BELOW 12,000 FEET WITH
NO SIGNIFICANT WEATHER AND/OR OBSTRUCTIONS TO VISIBILITY.

* THESE REPORTS ARE NOT UNDER NWS QUALITY CONTROL AND MAY NOT
  REPORT WEATHER SUCH AS PRECIPITATION AND FOG.

KYZ079-080-083-085-087-088-110-112-115-119-120-170200
...EASTERN KENTUCKY...

CITY           SKY/WX    TMP DP  RH WIND       PRES   REMARKS
JACKSON        PTCLDY    48  19  31 NE5       30.24S
LONDON         PTCLDY    52  22  30 E3        30.22R
SOMERSET*      MOCLDY    50  21  32 CALM      30.22S
MONTICELLO*    PTCLDY    44  30  58 CALM      30.22R
MIDDLESBORO*   CLEAR     48  32  54 CALM      30.23R
HARLAN APT*    CLEAR     52  19  28 E9        30.22S
PIKEVILLE APT* CLEAR     48  21  34 NE6       30.25S
BIG SANDY*     PTCLDY    46  23  40 NE7       30.26R
ASHLAND*       CLEAR     46  25  42 CALM      30.28S
MOREHEAD APT*  CLEAR     46  19  34 MISG      30.27F
$$

KYZ035-036-041-042-044-050-067-078-099-170200
...CENTRAL KENTUCKY...

CITY           SKY/WX    TMP DP  RH WIND       PRES   REMARKS
MT STERLING*   PTCLDY    46  23  39 SE6       30.25S
FLEMING/MASON* CLEAR     41  25  52 E6        30.27S
DANVILLE*      PTCLDY    45  28  53 E6        30.23R
LEXINGTON      PTCLDY    48  22  35 E9        30.23S
FRANKFORT      MOCLDY    44  25  47 E7        30.22S
$$

KYZ091>093-OHZ055-061-077-WVZ005-015-034-035-042-170200
...SOUTHERN OHIO/WEST VIRGINIA...

CITY           SKY/WX    TMP DP  RH WIND       PRES   REMARKS
COVINGTON      MOCLDY    45  21  38 E6        30.25S
COLUMBUS       MOCLDY    44  23  43 E8        30.32S
DAYTON         CLOUDY    45  25  45 E9        30.28S
WILMINGTON     PTCLDY    41  25  53 E6        30.27S
HUNTINGTON     PTCLDY    46  20  35 E6        30.28S
CHARLESTON     PTCLDY    47  21  35 NE8       30.30R
PINEVILLE*     CLEAR     45  31  58 MISG      30.33R
BECKLEY        CLEAR     44  21  40 SE8       30.30R
BLUEFIELD      CLEAR     46  17  31 E9        30.30R
$$

VAZ002-007-008-TNZ017-027-036-066-071-170200
...SOUTHWEST VIRGINIA/EAST TENNESSEE...

CITY           SKY/WX    TMP DP  RH WIND       PRES   REMARKS
WISE*          CLEAR     46  19  34 CALM      30.26R
ABINGDON*      CLEAR     51  14  23 SE8       30.27R
BRISTOL        PTCLDY    53  15  22 E8        30.25R
KNOXVILLE      PTCLDY    54  28  36 CALM      30.21R
OAK RIDGE      CLEAR     51  31  46 CALM      30.24R
CROSSVILLE     CLEAR     50  28  42 SE3       30.21R
NASHVILLE      PTCLDY    52  30  43 NE7       30.17S
$$

...KEY TO REMARKS...
VSB - VISIBILITY IN MILES
WCI - WIND CHILL INDEX
HX  - HEAT INDEX

$$



USA.gov is the U.S. government's official web portal to all federal, state and local government web resources and services.